www.pogodaiklimat.ru

Погода и климат >> Архив погоды >> Италия >> Капо Фраска


ПОГОДА на Капо Фраска

  • Прогноз погоды на Капо Фраска
  • Монитор погоды на Капо Фраска

АРХИВ ПОГОДЫ на Капо Фраска

Время (UTC), дата Ветер
(напр.,м/с)
 
Видим.   Явления Облачность Т
(С)
Тd
(С)
f
(%)
Тe
(С)
Тes
(С)
Комфортность P
(гПа)
Po
(гПа)
Тmin
(С)
Tmax
(С)
R
(мм)
R24
(мм)
S
(см)
06 18.05 СЗ 7 20 км 6/4 600 м
[Cu med, cong Ac trans Ci fib]
+14.2 +12.9 92 +12 +12 1004.1 992.8 +13.8 1
09 18.05 СЗ 5 20 км 6/5 600 м
[Cu med, cong Ac trans Ci fib]
+16.2 +14.6 90 +15 +18 1006.2 995.1
12 18.05 СЗ 6 20 км 6/5 600 м
[Cu med, cong Ci fib]
+17.0 +14.5 85 +16 +20 1006.2 995.1
15 18.05 СЗ 6 20 км 8/5 600 м
[Cu med, cong Ac trans Ci fib]
+15.8 +15.2 96 +14 +16 1007.3 996.1
18 18.05 СЗ 5 20 км 8/5 600 м
[Cu med, cong Ac trans Ci fib]
+15.2 +14.1 93 +14 +14 1007.4 996.1 +18.2
06 19.05 ЮЗ 2 20 км 6/3 600 м
[Cu Sc Ac trans]
+13.2 +11.9 92 +13 +14 1008.0 996.7 +10.8
09 19.05 ЮЗ 4 20 км {гроза, дождь} 5/4 450 м
[Cb cap Ac trans Ci fib]
+12.4 +11.3 93 +10 +16 1008.6 997.2
12 19.05 З 4 20 км {гроза, дождь} 4/3 600 м
[Cu Sc Ci fib]
+16.6 +15.0 90 +16 +26 1008.4 997.2 2
15 19.05 З 5 20 км 8/3 750 м
[Cu Sc Ac trans Ci fib]
+16.8 +15.5 92 +16 +18 1009.1 997.9
18 19.05 З 4 20 км 5/3 450 м
[Cu med, cong Ac lent Ci fib]
+16.2 +15.1 93 +15 +15 1008.9 997.7 +18.6 2
06 20.05 С 1 10 км в посл. час дождь 10/10 240 м
[Cb cap]
+12.0 +10.9 93 +13 +13 1010.3 998.9 +10.8 2
09 20.05 СЗ 6 10 км {ливн. осадки, дождь} 9/9 240 м
[Cb cap]
+14.0 +13.1 94 +12 +13 1012.3 1000.9
12 20.05 З 7 20 км {ливн. осадки, дождь} 10/9 450 м
[Cb cap Ac trans]
+15.8 +14.5 92 +14 +14 1013.0 1001.7 2
15 20.05 З 4 20 км 10/6 300 м
[Cu Sc Ac trans]
+17.2 +15.6 90 +17 +18 1013.8 1002.5
18 20.05 З 6 20 км 5/5 450 м
[Cu Sc Ac trans]
+15.8 +15.0 95 +14 +14 1013.9 1002.6 +17.4 2
06 21.05 З 3 10 км 4/3 240 м
[St Ci fib]
+14.8 +13.4 91 +14 +16 1015.2 1003.8 +12.6
09 21.05 З 4 20 км 8/5 600 м
[Cu med, cong Ci fib]
+15.8 +14.2 90 +15 +20 1016.0 1004.7
12 21.05 З 3 20 км 8/1 750 м
[Cu med, cong Ac lent Ci fib]
+17.8 +16.1 90 +18 +28 1016.3 1005.1
06 22.05 ЮЗ 1 20 км ясно +12.0 +10.7 92 +13 +16 1017.5 1006.0 +9.2
09 22.05 СЗ 1 20 км ясно +17.4 +13.3 77 +18 +35 опасность
простуды
1018.0 1006.7
12 22.05 СЗ 3 20 км ясно +19.0 +17.3 90 +21 +37 комфорт 1018.2 1007.0
15 22.05 З 3 20 км ясно +19.0 +18.2 95 +21 +29 комфорт 1018.0 1006.8
18 22.05 СЗ 3 20 км 6/0
[Ci fib]
+17.8 +17.3 97 +18 +18 1017.3 1006.0 +20.0
06 23.05 З 1 10 км 5/5 540 м
[Cu med, cong]
+15.0 +13.7 92 +15 +17 1018.3 1006.9 +13.4
09 23.05 ЮЗ 2 20 км 3/3 540 м
[Cu med, cong]
+17.0 +15.4 90 +18 +29 1019.1 1007.8
12 23.05 З 3 20 км 1/1 600 м
[Cu med, cong]
+19.0 +15.9 82 +21 +35 комфорт 1019.0 1007.8
15 23.05 З 5 20 км 4/1 600 м
[Cu hum Ci fib]
+20.0 +19.2 95 +23 +27 комфорт 1018.2 1007.0
18 23.05 З 3 20 км ясно +18.0 +16.9 93 +18 +18 1017.8 1006.5 +20.4
06 24.05 В 1 20 км 9/0 2000 м
[Ac trans Ci fib]
+15.0 +13.9 93 +15 +18 1015.3 1004.0 +11.6
09 24.05 В 1 20 км 8/0
[Ci fib]
+21.0 +14.9 68 +25 +40 комфорт 1015.2 1004.1
12 24.05 С 5 20 км 3/3 750 м
[Cu hum Ci fib]
+23.0 +16.8 68 +28 +36 душно 1013.7 1002.7
15 24.05 СЗ 2 20 км 4/4 900 м
[Cu med, cong Ci fib]
+21.4 +17.0 76 +25 +31 комфорт 1013.2 1002.2
18 24.05 З 4 20 км 8/1 900 м
[Cu hum Ci fib]
+19.0 +18.2 95 +21 +21 комфорт 1012.8 1001.6 +24.2

 

Местоположение метеостанции Капо Фраска (Италия): широта 39.75 долгота 8.47 высота над уровнем моря 89 м.

В архиве по умолчанию представлена погода на Капо Фраска за последнюю неделю. Архивные данные за месяц целиком и за предыдущие месяцы, начиная с января 2011 года, Вы можете получить, выбрав интересующий диапазон дат из раскрывающегося списка и нажав кнопку "Ввод!".


*Определитесь, кто Вы:
робот инопланетянин человек

Внимание! Время в таблицах - всемирное. Для получения местного времени необходимо прибавить поправку, которая равна 1 ч.

Смотрите также архив погоды в соседних городах и на ближайших метеорологических станциях:

Погода в Дечимоманну (Италия) (62 км)
Погода на Капо Кацция (Италия) (95 км)
Погода в Альгеро (Италия) (99 км)
Погода на Капо Беллависто (Италия) (109 км)
Погода на Капо Карбонара (Италия) (116 км)
Погода в Ольвии (Италия) (156 км)
Погода на Мысе Пертюзато (Франция) (190 км)
Погода в Фигари (Франция) (202 км)
Погода в Ла Парате (Франция) (242 км)
Погода в Аяччо (Франция) (243 км)

Пояснения к столбцам:

Ветер - указаны скорость ветра в м/с - средняя за 10 мин, порывы в срок и между сроками (в фигурных скобках) и направление, откуда дует ветер: С - северный, СВ - северо-восточный, В - восточный, ЮВ - юго-восточный, Ю - южный, ЮЗ - юго-западный, З - западный, СЗ - северо-западный.
Видимость - горизонтальная дальность видимости в метрах или километрах. При видимости от 1 до 10 км при отсутствии осадков обычно наблюдается дымка, при ухудшении видимости до 1 км и менее - туман. В сухую погоду видимость может ухудшаться дымом, пылью или мглою.
Явления - указаны атмосферные явления, наблюдавшиеся в срок или в последний час перед сроком; фигурными скобками обозначены явления, наблюдавшиеся между сроками (за 1-3 часа до срока); квадратными скобками обозначены град или гололедные отложения с указанием их диаметра в мм.
Облачность - указаны через наклонную черту общая и нижняя облачность в баллах и высота нижней границы облаков в метрах; квадратными скобками обозначены формы облаков: Ci - перистые, Cs - перисто-слоистые, Cc - перисто-кучевые, Ac - высококучевые, As - высокослоистые, Sc - слоисто-кучевые, Ns - слоисто-дождевые, Cu - кучевые, Cb - кучево-дождевые. Подробнее классификацию облаков см. в Атласе облаков (PDF).
T - Температура воздуха - температура, измеренная на высоте 2 м над землей.
Td - Температура точки росы - температура, при понижении до которой содержащийся в воздухе водяной пар достигнет насыщения.
f - Относительная влажность воздуха - влажноcть воздуха, измеренная на высоте 2 м над землей.
Te - Эффективная температура - температура, которую ощущает одетый по сезону человек в тени. Характеристика душности погоды. При расчете учитывается влияние влажности воздуха и скорости ветра на теплоощущения человека.
Tes - Эффективная температура на солнце - температура, которую ощущает человек, с поправкой на солнечный нагрев. Характеристика знойности погоды. Зависит от высоты солнца над горизонтом, облачности и скорости ветра. Ночью, в пасмурную погоду, а также при ветре 12 м/с и более поправка равна нулю.
P - Атмосферное давление - приведенное к уровню моря атмосферное давление.
Po - Атмосферное давление - измеренное на уровне метеостанции атмосферное давление.
Tmin - Минимальная температура - минимум температуры воздуха на высоте 2 м над землей.
Tmax - Максимальная температура - максимум температуры воздуха на высоте 2 м над землей.
R - Количество осадков - Количество выпавших осадков за период времени, мм. При наведении курсора мыши на число - период времени, за который выпало указанное количество осадков.
R24 - Количество осадков - Количество выпавших осадков за 24 часа, мм.
S - Снежный покров - Высота снежного покрова, см. При наведении курсора мыши на число - состояние снежного покрова и степень покрытия местности в баллах.